Weather in Verkhniy Akbash

Russia / The Kabardino-Balkar Republic     43°28′12″N   44°14′14″E
temp.,
°C
wind,
m/s
gust,
m/s
humid.,
%
clouds,
%
prec.,
mm/h
press.,
hPa
HPBL,
m
16 may, sun
sun1600:00+18sse2280100 0.0 101116
03:00+17s228231 0.0 101117
06:00+18sse12765 0.0 101052
09:00+24ne22625 0.0 1009567
12:00+28ne44460 0.0 10071142
15:00+29ene44430 0.0 10061366
18:00+27ene23585 0.0 100469
21:00+20sse116348 0.0 100511
17 may, mon
mon1700:00+18ssw227795 0.0 100521
03:00+16ssw1182100 0.0 100411
06:00+18sse116614 0.0 100532
09:00+25ene22390 0.0 1004421
12:00+28nne5438100 0.0 1004860
15:00+29n333713 0.0 10031320
18:00+25w4655100 0.0 1004113
21:00+18sw4966100 0.6 1007145
18 may, tue
tue1800:00+16ssw118893 0.0 100611
03:00+15wsw2290100 0.2 100837
06:00+16nnw2987100 0.5 1010725
09:00+18wnw367999 2.2 1010830
12:00+22nnw346080 0.3 10101365
15:00+23nnw345070 0.8 10101680
18:00+21wnw346763 0.3 1011185
21:00+16w228692 1.3 101321
19 may, wed
wed1900:00+15s22895 0.1 101215
03:00+14s22901 0.1 101120
06:00+16s11867 0.0 101176
09:00+20nnw227295 0.0 1012639
12:00+19nnw667593 1.3 1014877
15:00+20nnw446894 1.4 1015890
18:00+18n2575100 0.2 1016448
21:00+17nnw117662 0.2 101818
20 may, thu
thu2000:00+16nne0078100 0.0 101812
03:00+16ne1179100 0.1 101913
06:00+15ene2479100 0.0 1021200
09:00+19e33500 0.0 1019980
12:00+23e44500 0.0 10171387
15:00+24e55461 0.0 10161618
18:00+22e47550 0.0 1017404
21:00+17se47720 0.0 1017127